• En España
  • Lista de países
  • Para 7 días
  • Temperatura del agua
  • Mapa Satelital
  • El tiempo en el mapa
  • Informadores
  • user-avatar
    Iniciar sesión

    Tiempo cada hora Shumen

    Hoy, 19 Septiembre, Miércoles

    Tiempo Temperatura Precipitaciones Viento Presión Humedad
    00:00 +14°C° 0 mm 1 mps 736 mmHg 76%
    01:00 +14°C° 0 mm 1 mps 736 mmHg 78%
    02:00 +13°C° 0 mm 1 mps 736 mmHg 79%
    03:00 +13°C° 0 mm 1 mps 736 mmHg 81%
    04:00 +13°C° 0 mm 1 mps 736 mmHg 83%
    05:00 +12°C° 0 mm 1 mps 736 mmHg 85%
    06:00 +14°C° 0 mm 1 mps 736 mmHg 79%
    07:00 +15°C° 0 mm 1 mps 736 mmHg 74%
    08:00 +17°C° 0 mm 2 mps 736 mmHg 65%
    09:00 +18°C° 0 mm 2 mps 736 mmHg 58%
    10:00 +20°C° 0 mm 3 mps 737 mmHg 51%
    11:00 +22°C° 0 mm 3 mps 737 mmHg 44%
    12:00 +24°C° 0 mm 3 mps 737 mmHg 41%
    13:00 +25°C° 0 mm 3 mps 736 mmHg 38%
    14:00 +25°C° 0 mm 3 mps 736 mmHg 38%
    15:00 +25°C° 0 mm 3 mps 736 mmHg 40%
    16:00 +24°C° 0 mm 3 mps 736 mmHg 42%
    17:00 +24°C° 0 mm 3 mps 736 mmHg 44%
    18:00 +21°C° 0 mm 3 mps 735 mmHg 53%
    19:00 +18°C° 0 mm 2 mps 735 mmHg 62%
    20:00 +16°C° 0 mm 2 mps 735 mmHg 71%
    21:00 +15°C° 0 mm 2 mps 735 mmHg 74%
    22:00 +15°C° 0 mm 1 mps 735 mmHg 78%
    23:00 +14°C° 0 mm 1 mps 735 mmHg 81%

    Mañana, 20 Septiembre, Jueves

    Tiempo Temperatura Precipitaciones Viento Presión Humedad
    00:00 +14°C° 0 mm 1 mps 735 mmHg 82%
    01:00 +13°C° 0 mm 1 mps 735 mmHg 83%
    02:00 +13°C° 0 mm 1 mps 735 mmHg 83%
    03:00 +13°C° 0 mm 1 mps 735 mmHg 83%
    04:00 +12°C° 0 mm 1 mps 735 mmHg 84%
    05:00 +12°C° 0 mm 1 mps 734 mmHg 84%
    06:00 +14°C° 0 mm 1 mps 735 mmHg 77%
    07:00 +15°C° 0 mm 1 mps 735 mmHg 70%
    08:00 +18°C° 0 mm 1 mps 735 mmHg 64%
    09:00 +19°C° 0 mm 2 mps 735 mmHg 57%
    10:00 +21°C° 0 mm 2 mps 735 mmHg 51%
    11:00 +24°C° 0 mm 2 mps 736 mmHg 44%
    12:00 +25°C° 0 mm 3 mps 735 mmHg 42%
    13:00 +26°C° 0 mm 3 mps 735 mmHg 39%
    14:00 +27°C° 0 mm 3 mps 735 mmHg 37%
    15:00 +27°C° 0 mm 3 mps 734 mmHg 39%
    16:00 +26°C° 0 mm 3 mps 734 mmHg 42%
    17:00 +26°C° 0 mm 3 mps 734 mmHg 44%
    18:00 +22°C° 0 mm 3 mps 734 mmHg 54%
    19:00 +20°C° 0 mm 2 mps 734 mmHg 64%
    20:00 +18°C° 0 mm 2 mps 734 mmHg 73%
    21:00 +17°C° 0 mm 2 mps 734 mmHg 77%
    22:00 +18°C° 0 mm 1 mps 734 mmHg 81%
    23:00 +16°C° 0 mm 1 mps 734 mmHg 85%

    Pasado mañana, 21 Septiembre, Viernes

    Tiempo Temperatura Precipitaciones Viento Presión Humedad
    00:00 +16°C° 0 mm 1 mps 734 mmHg 86%
    01:00 +15°C° 0 mm 1 mps 733 mmHg 86%
    02:00 +15°C° 0 mm 1 mps 733 mmHg 87%
    03:00 +15°C° 0 mm 1 mps 733 mmHg 87%
    04:00 +15°C° 0 mm 1 mps 733 mmHg 86%
    05:00 +14°C° 0 mm 1 mps 733 mmHg 86%
    06:00 +16°C° 0 mm 1 mps 733 mmHg 80%
    07:00 +18°C° 0 mm 1 mps 734 mmHg 74%
    08:00 +20°C° 0 mm 1 mps 734 mmHg 67%
    09:00 +22°C° 0 mm 1 mps 734 mmHg 58%
    10:00 +24°C° 0 mm 2 mps 734 mmHg 49%
    11:00 +26°C° 0 mm 2 mps 734 mmHg 40%
    12:00 +27°C° 0 mm 2 mps 734 mmHg 37%
    13:00 +27°C° 0 mm 2 mps 734 mmHg 34%
    14:00 +28°C° 0 mm 3 mps 733 mmHg 32%
    15:00 +28°C° 0 mm 3 mps 733 mmHg 34%
    16:00 +27°C° 0 mm 2 mps 733 mmHg 37%
    17:00 +26°C° 0 mm 2 mps 733 mmHg 39%
    18:00 +24°C° 0 mm 2 mps 733 mmHg 48%
    19:00 +21°C° 0 mm 2 mps 733 mmHg 56%
    20:00 +19°C° 0 mm 2 mps 733 mmHg 65%
    21:00 +19°C° 0 mm 2 mps 733 mmHg 69%
    22:00 +19°C° 0 mm 1 mps 733 mmHg 73%
    23:00 +19°C° 0 mm 1 mps 733 mmHg 77%

    22 Septiembre, Sábado

    Tiempo Temperatura Precipitaciones Viento Presión Humedad
    00:00 +18°C° 0 mm 1 mps 733 mmHg 78%
    01:00 +18°C° 0 mm 1 mps 733 mmHg 80%
    02:00 +16°C° 0 mm 1 mps 733 mmHg 81%
    03:00 +16°C° 0 mm 1 mps 733 mmHg 82%
    04:00 +16°C° 0 mm 1 mps 732 mmHg 82%
    05:00 +16°C° 0 mm 1 mps 732 mmHg 83%
    06:00 +16°C° 0 mm 0 mps 733 mmHg 76%
    07:00 +17°C° 0 mm 0 mps 733 mmHg 70%
    08:00 +19°C° 0 mm 0 mps 733 mmHg 63%
    09:00 +21°C° 0 mm 0 mps 733 mmHg 54%
    10:00 +26°C° 0 mm 1 mps 733 mmHg 44%
    11:00 +28°C° 0 mm 1 mps 734 mmHg 35%
    12:00 +29°C° 0 mm 1 mps 733 mmHg 32%
    13:00 +29°C° 0 mm 1 mps 733 mmHg 29%
    14:00 +30°C° 0 mm 1 mps 733 mmHg 27%
    15:00 +29°C° 0 mm 1 mps 732 mmHg 29%
    16:00 +29°C° 0 mm 1 mps 732 mmHg 31%
    17:00 +28°C° 0 mm 2 mps 732 mmHg 33%
    18:00 +26°C° 0 mm 1 mps 732 mmHg 40%
    19:00 +23°C° 0 mm 1 mps 732 mmHg 47%
    20:00 +21°C° 0 mm 1 mps 732 mmHg 53%
    21:00 +21°C° 0 mm 1 mps 732 mmHg 55%
    22:00 +20°C° 0 mm 1 mps 732 mmHg 58%
    23:00 +20°C° 0 mm 1 mps 732 mmHg 60%

    23 Septiembre, Domingo

    Tiempo Temperatura Precipitaciones Viento Presión Humedad
    00:00 +19°C° 0 mm 1 mps 732 mmHg 59%
    01:00 +19°C° 0 mm 1 mps 732 mmHg 59%
    02:00 +19°C° 0 mm 1 mps 732 mmHg 59%
    03:00 +19°C° 0 mm 1 mps 732 mmHg 57%
    04:00 +19°C° 0 mm 1 mps 732 mmHg 56%
    05:00 +18°C° 0 mm 2 mps 732 mmHg 54%
    06:00 +19°C° 0 mm 2 mps 732 mmHg 51%
    07:00 +20°C° 0 mm 2 mps 733 mmHg 47%
    08:00 +23°C° 0 mm 2 mps 733 mmHg 43%
    09:00 +24°C° 0 mm 3 mps 733 mmHg 41%
    10:00 +26°C° 0 mm 3 mps 734 mmHg 38%
    11:00 +28°C° 0 mm 4 mps 734 mmHg 35%
    12:00 +28°C° 0 mm 3 mps 734 mmHg 35%
    13:00 +29°C° 0 mm 3 mps 734 mmHg 34%
    14:00 +29°C° 0 mm 2 mps 734 mmHg 33%
    15:00 +29°C° 0 mm 2 mps 733 mmHg 36%
    16:00 +28°C° 0 mm 2 mps 733 mmHg 38%
    17:00 +27°C° 0 mm 2 mps 733 mmHg 41%
    18:00 +25°C° 0 mm 3 mps 733 mmHg 50%
    19:00 +22°C° 0 mm 3 mps 733 mmHg 59%
    20:00 +19°C° 0 mm 3 mps 734 mmHg 68%
    21:00 +19°C° 0 mm 3 mps 734 mmHg 73%
    22:00 +18°C° 0 mm 3 mps 734 mmHg 79%
    23:00 +17°C° 0 mm 3 mps 734 mmHg 85%

    24 Septiembre, Lunes

    Tiempo Temperatura Precipitaciones Viento Presión Humedad
    00:00 +17°C° 0 mm 3 mps 733 mmHg 86%
    01:00 +17°C° 0 mm 3 mps 733 mmHg 88%
    02:00 +17°C° 0 mm 3 mps 732 mmHg 90%
    03:00 +17°C° 0 mm 3 mps 732 mmHg 91%
    04:00 +17°C° 0 mm 3 mps 731 mmHg 92%
    05:00 +17°C° 0 mm 3 mps 731 mmHg 93%
    06:00 +18°C° 0 mm 4 mps 730 mmHg 87%
    07:00 +19°C° 0 mm 4 mps 730 mmHg 82%
    08:00 +20°C° 0 mm 5 mps 730 mmHg 76%
    09:00 +23°C° 0 mm 5 mps 729 mmHg 64%
    10:00 +26°C° 0 mm 6 mps 729 mmHg 53%
    11:00 +28°C° 0 mm 6 mps 729 mmHg 41%
    12:00 +30°C° 0 mm 6 mps 728 mmHg 37%
    13:00 +32°C° 0 mm 6 mps 727 mmHg 34%
    14:00 +33°C° 0 mm 6 mps 727 mmHg 30%
    15:00 +32°C° 0 mm 5 mps 726 mmHg 31%
    16:00 +32°C° 0 mm 4 mps 726 mmHg 32%
    17:00 +30°C° 0 mm 3 mps 725 mmHg 33%
    18:00 +28°C° 0 mm 5 mps 726 mmHg 39%
    19:00 +24°C° 0 mm 6 mps 726 mmHg 45%
    20:00 +21°C° 0 mm 7 mps 727 mmHg 51%
    21:00 +20°C° 0 mm 8 mps 727 mmHg 50%
    22:00 +17°C° 0 mm 9 mps 728 mmHg 49%
    23:00 +14°C° 0 mm 10 mps 729 mmHg 48%
    Mostrar más